N4RCT Weather Reports


Display with metric or nautical units.
time (UTC)temp
F
wind
direction
speed
MPH
gust
MPH
rain 1hr
in
rain 24hr
in
rain mn
in
humidity
%
barometer
mb
20260504215459 76 191 1.0 1.0 0.00 0.00 0.00 47 1012.5
20260504214956 77 167 1.0 1.0 0.00 0.00 0.00 48 1012.6
20260504214453 77 131 0.0 0.0 0.00 0.00 0.00 46 1012.3
20260504213949 77 134 1.0 1.0 0.00 0.00 0.00 45 1012.6
20260504213445 77 155 0.0 0.0 0.00 0.00 0.00 44 1012.4
20260504212943 77 60 3.0 5.0 0.00 0.00 0.00 43 1012.5
20260504212438 77 104 0.0 0.0 0.00 0.00 0.00 43 1012.6
20260504211937 77 75 1.0 2.0 0.00 0.00 0.00 46 1012.6
20260504211433 77 112 0.0 1.0 0.00 0.00 0.00 44 1012.7
20260504210930 77 81 0.0 0.0 0.00 0.00 0.00 44 1012.9
20260504210427 77 92 1.0 1.0 0.00 0.00 0.00 43 1012.6
20260504205924 77 149 0.0 0.0 0.00 0.00 0.00 44 1012.9
20260504205422 76 143 0.0 0.0 0.00 0.00 0.00 46 1012.9
20260504204920 76 178 1.0 1.0 0.00 0.00 0.00 47 1012.8
20260504204418 76 166 0.0 1.0 0.00 0.00 0.00 46 1012.7
20260504203917 77 182 0.0 1.0 0.00 0.00 0.00 47 1013.0
20260504203414 77 159 0.0 0.0 0.00 0.00 0.00 44 1012.9
20260504202909 77 183 1.0 1.0 0.00 0.00 0.00 47 1013.2
20260504202407 78 176 1.0 1.0 0.00 0.00 0.00 46 1013.0
20260504201903 78 104 0.0 0.0 0.00 0.00 0.00 45 1013.3
20260504201401 78 104 0.0 0.0 0.00 0.00 0.00 42 1013.2
20260504200858 77 89 0.0 0.0 0.00 0.00 0.00 47 1013.3
20260504200354 76 179 0.0 0.0 0.00 0.00 0.00 53 1013.5
20260504195851 76 110 0.0 0.0 0.00 0.00 0.00 50 1013.5
20260504195346 76 150 0.0 0.0 0.00 0.00 0.00 49 1013.6
20260504194843 77 174 0.0 0.0 0.00 0.00 0.00 45 1013.6
20260504194339 77 76 0.0 0.0 0.00 0.00 0.00 43 1013.5
20260504193835 77 145 1.0 1.0 0.00 0.00 0.00 46 1013.8
20260504193333 76 102 0.0 0.0 0.00 0.00 0.00 45 1013.8
20260504192832 77 173 1.0 1.0 0.00 0.00 0.00 47 1013.7
20260504192329 78 105 0.0 0.0 0.00 0.00 0.00 44 1014.2
20260504191827 79 90 0.0 0.0 0.00 0.00 0.00 42 1014.3
20260504191325 78 30 0.0 1.0 0.00 0.00 0.00 45 1014.1
20260504190820 77 100 1.0 1.0 0.00 0.00 0.00 46 1014.2
20260504190316 77 149 0.0 1.0 0.00 0.00 0.00 46 1014.5
20260504185813 77 44 3.0 3.0 0.00 0.00 0.00 44 1014.3
20260504185310 77 255 1.0 2.0 0.00 0.00 0.00 47 1014.6
20260504184806 78 115 0.0 0.0 0.00 0.00 0.00 48 1014.8
20260504184302 78 197 1.0 2.0 0.00 0.00 0.00 48 1014.7
20260504183758 77 178 0.0 1.0 0.00 0.00 0.00 50 1014.6
20260504183255 75 179 1.0 1.0 0.00 0.00 0.00 48 1014.8
20260504182753 77 231 2.0 2.0 0.00 0.00 0.00 46 1014.8
20260504182250 78 168 2.0 2.0 0.00 0.00 0.00 45 1014.6
20260504181748 78 131 1.0 1.0 0.00 0.00 0.00 46 1014.9
20260504181245 78 177 1.0 1.0 0.00 0.00 0.00 44 1015.1
20260504180744 78 185 1.0 1.0 0.00 0.00 0.00 46 1014.8
20260504180242 77 165 1.0 2.0 0.00 0.00 0.00 47 1015.0
20260504175739 76 135 0.0 0.0 0.00 0.00 0.00 46 1014.8
20260504175236 75 117 0.0 0.0 0.00 0.00 0.00 47 1015.3
20260504174734 75 209 1.0 3.0 0.00 0.00 0.00 48 1015.3
20260504174232 75 113 0.0 1.0 0.00 0.00 0.00 49 1015.2
20260504173728 76 167 1.0 1.0 0.00 0.00 0.00 48 1015.3
20260504173225 75 75 0.0 0.0 0.00 0.00 0.00 46 1015.4
20260504172722 74 94 0.0 0.0 0.00 0.00 0.00 49 1015.5
20260504172218 75 36 2.0 3.0 0.00 0.00 0.00 46 1015.7
20260504171715 76 203 0.0 1.0 0.00 0.00 0.00 48 1015.5
20260504171212 75 74 0.0 1.0 0.00 0.00 0.00 48 1015.9
20260504170708 74 129 1.0 2.0 0.00 0.00 0.00 50 1015.7
20260504170206 74 146 0.0 0.0 0.00 0.00 0.00 47 1015.9
20260504160124 71 174 1.0 1.0 0.00 0.00 0.00 52 1016.7
20260504151051 67 179 0.0 1.0 0.00 0.00 0.00 60 1016.8
20260504150549 68 169 0.0 1.0 0.00 0.00 0.00 57 1016.7
20260504141015 62 99 0.0 0.0 0.00 0.00 0.00 66 1017.3
20260504140511 62 119 0.0 0.0 0.00 0.00 0.00 68 1017.4
20260504130436 57 118 0.0 0.0 0.00 0.00 0.00 74 1017.2
20260504110322 41 109 0.0 0.0 0.00 0.00 0.00 98 1016.9
20260504100235 41 119 0.0 0.0 0.00 0.00 0.00 98 1016.6
20260504081628 41 121 0.0 0.0 0.00 0.00 0.00 97 1016.5
20260504081124 41 119 0.0 0.0 0.00 0.00 0.00 97 1016.5
20260504080621 41 109 0.0 0.0 0.00 0.00 0.00 97 1016.6
20260504080117 41 117 0.0 0.0 0.00 0.00 0.00 97 1016.6
20260504050433 45 109 0.0 0.0 0.00 0.00 0.00 94 1017.2
20260504045931 45 109 0.0 0.0 0.00 0.00 0.00 94 1017.1
20260504045426 45 109 0.0 0.0 0.00 0.00 0.00 94 1017.2
20260504044922 45 109 0.0 0.0 0.00 0.00 0.00 94 1017.0
20260504044420 45 109 0.0 0.0 0.00 0.00 0.00 93 1017.3
20260504043918 45 102 0.0 0.0 0.00 0.00 0.00 93 1017.3
20260504043414 45 119 0.0 0.0 0.00 0.00 0.00 93 1017.1
20260504042912 45 119 0.0 0.0 0.00 0.00 0.00 92 1017.6
20260504042408 46 120 0.0 0.0 0.00 0.00 0.00 92 1017.8
20260504041904 46 120 0.0 0.0 0.00 0.00 0.00 91 1017.4
20260504041401 46 119 0.0 0.0 0.00 0.00 0.00 91 1017.3
20260504040856 46 109 0.0 0.0 0.00 0.00 0.00 90 1017.6
20260504040354 46 109 0.0 0.0 0.00 0.00 0.00 91 1017.5
20260504035850 46 102 0.0 0.0 0.00 0.00 0.00 91 1017.8
20260504035348 47 109 0.0 0.0 0.00 0.00 0.00 91 1017.3
20260504034844 47 109 0.0 0.0 0.00 0.00 0.00 91 1017.5
20260504034342 47 109 0.0 0.0 0.00 0.00 0.00 91 1017.6
20260504033839 47 108 0.0 0.0 0.00 0.00 0.00 91 1017.8
20260504033337 47 119 0.0 0.0 0.00 0.00 0.00 90 1017.5
20260504032833 48 109 0.0 0.0 0.00 0.00 0.00 90 1017.5
20260504032331 48 109 0.0 0.0 0.00 0.00 0.00 90 1017.6
20260504031827 48 119 0.0 0.0 0.00 0.00 0.00 89 1017.8
20260504031325 48 119 0.0 0.0 0.00 0.00 0.00 88 1017.5
20260504030821 48 109 0.0 0.0 0.00 0.00 0.00 88 1017.3
20260504030318 49 120 0.0 0.0 0.00 0.00 0.00 88 1017.2
20260504025814 49 119 0.0 0.0 0.00 0.00 0.00 89 1017.5
20260504025312 49 120 0.0 0.0 0.00 0.00 0.00 88 1017.2
20260504024808 50 121 0.0 0.0 0.00 0.00 0.00 87 1017.1
20260504024304 50 120 0.0 0.0 0.00 0.00 0.00 87 1017.4
20260504023801 50 120 0.0 0.0 0.00 0.00 0.00 87 1017.4
20260504023258 50 119 0.0 0.0 0.00 0.00 0.00 87 1017.3
20260504022754 50 109 0.0 0.0 0.00 0.00 0.00 86 1017.1
20260504022250 50 103 0.0 0.0 0.00 0.00 0.00 86 1017.1
20260504021747 51 90 0.0 0.0 0.00 0.00 0.00 86 1017.0
20260504021245 51 120 0.0 0.0 0.00 0.00 0.00 85 1017.2
20260504020741 51 121 0.0 0.0 0.00 0.00 0.00 85 1017.2
20260504020238 51 119 0.0 0.0 0.00 0.00 0.00 84 1017.2
20260504015734 52 119 0.0 0.0 0.00 0.00 0.00 84 1016.9
20260504015231 52 119 0.0 0.0 0.00 0.00 0.00 84 1016.8
20260504014726 52 122 0.0 0.0 0.00 0.00 0.00 85 1016.9
20260504014223 52 109 0.0 0.0 0.00 0.00 0.00 84 1016.7
20260504013721 53 108 0.0 0.0 0.00 0.00 0.00 83 1016.7
20260504013218 53 110 0.0 0.0 0.00 0.00 0.00 82 1016.8
20260504012715 53 109 0.0 0.0 0.00 0.00 0.00 81 1016.8
20260504012213 53 109 0.0 0.0 0.00 0.00 0.00 82 1016.6
20260504011709 54 109 0.0 0.0 0.00 0.00 0.00 82 1016.6
20260504011206 54 109 0.0 0.0 0.00 0.00 0.00 79 1016.5
20260504010702 55 109 0.0 0.0 0.00 0.00 0.00 77 1016.5
20260504010158 55 119 0.0 0.0 0.00 0.00 0.00 77 1016.4
20260504005655 55 121 0.0 0.0 0.00 0.00 0.00 76 1016.6
20260504005151 56 120 0.0 0.0 0.00 0.00 0.00 76 1016.6
20260504004649 56 121 0.0 0.0 0.00 0.00 0.00 75 1016.3
20260504004146 57 121 0.0 0.0 0.00 0.00 0.00 75 1016.5
20260504003643 57 134 0.0 0.0 0.00 0.00 0.00 73 1016.3
20260504003139 58 135 0.0 0.0 0.00 0.00 0.00 70 1016.4
20260504002636 58 120 0.0 0.0 0.00 0.00 0.00 70 1016.4
20260504002134 59 122 0.0 0.0 0.00 0.00 0.00 69 1016.4
20260504001632 60 109 0.0 0.0 0.00 0.00 0.00 68 1016.3
20260504001127 60 138 0.0 0.0 0.00 0.00 0.00 71 1016.1
20260504000625 60 146 0.0 0.0 0.00 0.00 0.00 70 1016.3
20260504000122 61 130 0.0 0.0 0.00 0.00 0.00 67 1016.3
20260503235620 62 141 0.0 0.0 0.00 0.00 0.00 62 1016.2
20260503235116 62 122 0.0 0.0 0.00 0.00 0.00 61 1016.1
20260503234615 63 133 0.0 0.0 0.00 0.00 0.00 56 1016.1
20260503234112 63 133 0.0 0.0 0.00 0.00 0.00 56 1016.2
20260503233609 64 133 0.0 0.0 0.00 0.00 0.00 56 1016.1
20260503233104 64 119 0.0 0.0 0.00 0.00 0.00 53 1016.0
20260503232602 64 135 0.0 0.0 0.00 0.00 0.00 53 1016.1
20260503232059 65 103 0.0 0.0 0.00 0.00 0.00 50 1016.0
20260503231557 65 116 0.0 0.0 0.00 0.00 0.00 54 1016.3
20260503231053 65 128 0.0 0.0 0.00 0.00 0.00 52 1016.2
20260503230550 65 126 0.0 0.0 0.00 0.00 0.00 50 1016.3
20260503230047 66 115 0.0 0.0 0.00 0.00 0.00 50 1016.3
20260503225544 66 120 0.0 0.0 0.00 0.00 0.00 51 1016.3
20260503225039 66 78 0.0 1.0 0.00 0.00 0.00 52 1016.4
20260503224537 66 80 0.0 1.0 0.00 0.00 0.00 56 1016.2
20260503224035 67 121 0.0 0.0 0.00 0.00 0.00 48 1016.4
20260503223533 67 129 0.0 0.0 0.00 0.00 0.00 46 1016.3
20260503223028 67 81 0.0 0.0 0.00 0.00 0.00 45 1016.3
20260503222526 67 125 0.0 0.0 0.00 0.00 0.00 45 1016.5
20260503222024 67 126 0.0 0.0 0.00 0.00 0.00 45 1016.2
20260503221522 67 182 1.0 1.0 0.00 0.00 0.00 48 1016.4
20260503221019 67 120 0.0 0.0 0.00 0.00 0.00 47 1016.3
20260503220515 67 129 0.0 0.0 0.00 0.00 0.00 48 1016.6
20260503220012 67 177 1.0 1.0 0.00 0.00 0.00 48 1016.4